CYXX

Abbotsford International Airport

Airport
ICAO code
CYXX
IATA Code
YXX
Summary
ICAO Region
NAM
ICAO Territory
Location

Abbotsford, British Columbia

Serving
Abbotsford
Elevation
194 ft
Coordinates
49° 1' 31" N , 122° 21' 48" W
KCC
Airport BS
Bird Strike
Airport WX
Fog
Metar
Observation
CYXX 032000Z 27003KT 250V010 30SM FEW078 BKN090 OVC110 06/01 A2981 RMK AC1AS7AC1 AC TR VIRGA SLP097
Station
Abbotsford, B. C.
Date/Time
2023-02-03 20:00:00
Wind direction
270°
Wind speed
03 kts
Lowest cloud amount
few clouds
Temperature
6°C
Dew point
1°C
Humidity
70%
Weather condition
n/a

Description

Abbotsford International Airport is located near Abbotsford, British Columbia, Canada.

Climatology

Temperate Marine climate/Oceanic climate (Köppen climate classification Cfb). Moderately cool summer and comparatively warm winter.

Runways

Designator Length Width Surface Rops
01L/19R 457 30 GRS No/No
1/19 1624 61 ASP Yes/Yes
7/25 2926 61 PEM Yes/Yes

Airport map

Aerial View

SKYbrary Partners:

Safety knowledge contributed by: